EW9592 Weather Reports


Display with metric or nautical units.
time (UTC)temp
F
wind
direction
speed
MPH
gust
MPH
rain 1hr
in
rain 24hr
in
rain mn
in
humidity
%
barometer
mb
20260502203040 54 333 0.0 2.0 0.00 0.00 0.00 56 1016.8
20260502201539 53 8 0.0 3.0 0.00 0.00 0.00 58 1016.9
20260502200037 53 354 0.0 1.0 0.00 0.00 0.00 57 1017.1
20260502194538 53 6 0.0 1.0 0.00 0.00 0.00 57 1017.2
20260502193037 53 274 0.0 1.0 0.00 0.00 0.00 59 1017.1
20260502191536 53 330 0.0 1.0 0.00 0.00 0.00 58 1017.3
20260502190041 53 333 0.0 1.0 0.00 0.00 0.00 59 1017.5
20260502184549 54 288 0.0 1.0 0.00 0.00 0.00 60 1017.4
20260502183049 52 30 0.0 1.0 0.00 0.00 0.00 61 1017.5
20260502181540 53 301 0.0 2.0 0.00 0.00 0.00 57 1017.6
20260502163039 54 257 0.0 1.0 0.00 0.00 0.00 58 1017.8
20260502161529 55 22 0.0 2.0 0.00 0.00 0.00 53 1018.1
20260502151522 53 129 0.0 3.0 0.00 0.00 0.00 60 1018.1
20260502123047 42 63 0.0 0.0 0.00 0.00 0.00 91 1017.8
20260502121545 41 358 0.0 0.0 0.00 0.00 0.00 93 1017.8
20260502114551 38 273 0.0 0.0 0.00 0.00 0.00 93 1017.5
20260502113041 37 273 0.0 0.0 0.00 0.00 0.00 93 1017.4
20260502111539 38 272 0.0 0.0 0.00 0.00 0.00 93 1017.3
20260502110039 38 273 0.0 0.0 0.00 0.00 0.00 93 1017.2
20260502104547 38 273 0.0 0.0 0.00 0.00 0.00 93 1017.2
20260502103037 38 273 0.0 0.0 0.00 0.00 0.00 93 1016.9
20260502101602 38 273 0.0 0.0 0.00 0.00 0.00 93 1017.0
20260502071529 38 272 0.0 0.0 0.00 0.00 0.00 92 1016.9
20260502070043 38 273 0.0 0.0 0.00 0.00 0.00 92 1016.8
20260502064524 38 273 0.0 0.0 0.00 0.00 0.00 92 1017.0
20260502063022 39 273 0.0 0.0 0.00 0.00 0.00 92 1017.0
20260502061521 39 273 0.0 0.0 0.00 0.00 0.00 91 1017.1
20260502060018 39 273 0.0 0.0 0.00 0.00 0.00 91 1017.2
20260502054517 39 273 0.0 0.0 0.00 0.00 0.00 91 1017.4
20260502053015 39 273 0.0 0.0 0.00 0.00 0.00 91 1017.5
20260502051517 40 273 0.0 0.0 0.00 0.00 0.00 91 1017.5
20260502050012 40 272 0.0 0.0 0.00 0.00 0.00 90 1017.4
20260502044513 40 272 0.0 0.0 0.00 0.00 0.00 90 1017.5
20260502043009 40 272 0.0 0.0 0.00 0.00 0.00 90 1017.5
20260502041507 41 273 0.0 0.0 0.00 0.00 0.00 89 1017.6
20260502040004 41 272 0.0 0.0 0.00 0.00 0.00 88 1017.7
20260502034505 42 273 0.0 0.0 0.00 0.00 0.00 88 1017.5
20260502033003 43 272 0.0 0.0 0.00 0.00 0.00 87 1017.5
20260502031502 43 272 0.0 0.0 0.00 0.00 0.00 86 1017.5
20260502030002 44 273 0.0 0.0 0.00 0.00 0.00 85 1017.5
20260502024501 44 272 0.0 0.0 0.00 0.00 0.00 84 1017.7
20260502023125 45 273 0.0 0.0 0.00 0.00 0.00 82 1017.6
20260502021558 46 272 0.0 0.0 0.00 0.00 0.00 80 1017.4
20260502020107 46 273 0.0 0.0 0.00 0.00 0.00 77 1017.1
20260502014554 47 273 0.0 0.0 0.00 0.00 0.00 77 1016.8
20260502013102 48 272 0.0 0.0 0.00 0.00 0.00 74 1016.7
20260502011548 49 272 0.0 0.0 0.00 0.00 0.00 72 1016.3
20260502010045 50 273 0.0 0.0 0.00 0.00 0.00 67 1016.0
20260502004557 52 273 0.0 0.0 0.00 0.00 0.00 64 1015.8
20260502003043 53 272 0.0 0.0 0.00 0.00 0.00 62 1015.6
20260502001601 54 273 0.0 1.0 0.00 0.00 0.00 63 1015.6
20260502000041 54 309 0.0 0.0 0.00 0.00 0.00 60 1015.0
20260501234540 54 30 0.0 1.0 0.00 0.00 0.00 60 1014.7
20260501233049 55 30 0.0 1.0 0.00 0.00 0.00 62 1014.4
20260501231540 55 354 0.0 1.0 0.00 0.00 0.00 57 1014.7
20260501230040 55 6 0.0 1.0 0.00 0.00 0.00 57 1014.8
20260501224539 56 311 0.0 1.0 0.00 0.00 0.00 58 1014.7
20260501223040 56 349 0.0 1.0 0.00 0.00 0.00 57 1014.7
20260501221539 57 54 0.0 2.0 0.00 0.00 0.00 55 1014.6
20260501220107 57 275 0.0 1.0 0.00 0.00 0.00 58 1014.6
20260501214538 57 45 0.0 5.0 0.00 0.00 0.00 58 1014.7
20260501213034 57 30 0.0 2.0 0.00 0.00 0.00 55 1014.6
20260501211535 57 70 0.0 3.0 0.00 0.00 0.00 57 1014.6
20260501210044 58 20 1.0 5.0 0.00 0.00 0.00 55 1014.5
20260501204540 58 12 0.0 3.0 0.00 0.00 0.00 52 1014.6